R/V Knorr Calliope CSV data file  (Time stamps are GMT)
Date, Time_GMT, Depth12, Depth35, Air_Temp, WXT5_Ta, WXT5_Pa, dec_lat, dec_lon, GPS_COG, GPS_SOG, Gyro, IMET_BPR, IMET_SWR, WXT5_Ri, WXT5_Rc, HRH, WXT5_Ua, WXT5_Dm, WXT5_Sm, SBE45C, SBE45S, SBE45T, Salinity, SSCND, Fluorometer, SSTMP, SSV, Wnd_Dir, TWD5, Wnd_Spd, TWS5, HdChkSum=3E
2009/04/17, 00:00:23, , , 25.09, 24.90, 1010.7, 12.8558480, -131.6546530, 290.60, 12.54, 290.70, 1010.33, 178.20, 0.0, 199.22, 79.07, 76.3, 87, 9.8, 55.19810, 34.42400, 27.8014, 34.4240, 55.1981, 79.30, 26.4562, 1537.21, 51.90, 46.5, 12.46, 11.2, 3E
2009/04/17, 00:01:22, , , 24.91, 24.90, 1010.7, 12.8568970, -131.6579530, 283.60, 11.10, 288.70, 1010.30, 180.40, 0.0, 199.22, 78.22, 75.2, 97, 9.9, 55.19120, 34.42540, 27.7930, 34.4254, 55.1912, 79.00, 26.4542, 1537.21, 50.90, 54.2, 12.25, 12.9, 3E
2009/04/17, 00:02:22, , , 24.93, 24.80, 1010.6, 12.8578950, -131.6612450, 287.30, 12.41, 289.90, 1010.61, 196.30, 0.0, 199.22, 78.74, 75.2, 94, 9.1, 55.19210, 34.42570, 27.7934, 34.4257, 55.1921, 78.70, 26.4526, 1537.21, 51.70, 55.1, 12.73, 10.9, 3E
2009/04/17, 00:03:22, , , 25.00, 24.80, 1010.6, 12.8588830, -131.6644930, 286.50, 11.54, 289.30, 1010.36, 226.60, 0.0, 199.22, 78.43, 77.1, 93, 10.4, 55.20100, 34.42590, 27.8016, 34.4259, 55.2010, 79.00, 26.4502, 1537.20, 53.00, 47.0, 10.92, 12.8, 3E
2009/04/17, 00:04:22, , , 24.96, 24.80, 1010.6, 12.8598630, -131.6677220, 294.70, 12.00, 290.40, 1010.63, 263.00, 0.0, 199.22, 78.78, 76.2, 94, 9.7, 55.20150, 34.42660, 27.8011, 34.4266, 55.2015, 79.00, 26.4478, 1537.20, 51.70, 52.8, 12.85, 11.2, 3E
2009/04/17, 00:05:22, , , 25.03, 24.80, 1010.6, 12.8609570, -131.6709350, 288.50, 11.17, 289.60, 1010.44, 289.10, 0.0, 199.22, 79.34, 75.6, 93, 9.2, 55.20120, 34.42720, 27.8000, 34.4272, 55.2012, 79.60, 26.4459, 1537.19, 51.10, 53.8, 12.59, 11.1, 3E
2009/04/17, 00:06:22, , , 24.97, 24.90, 1010.6, 12.8619320, -131.6741750, 283.70, 12.61, 291.30, 1010.17, 302.60, 0.0, 199.22, 78.60, 76.3, 96, 10.2, 55.19780, 34.42820, 27.7954, 34.4282, 55.1978, 79.60, 26.4448, 1537.19, 52.40, 53.2, 12.48, 11.0, 3E
2009/04/17, 00:07:22, , , 24.94, 24.90, 1010.6, 12.8629450, -131.6773950, 286.70, 11.77, 290.10, 1010.45, 308.10, 0.0, 199.22, 78.57, 74.5, 91, 9.6, 55.19930, 34.42860, 27.7963, 34.4286, 55.1993, 79.30, 26.4428, 1537.19, 54.00, 51.8, 12.04, 13.3, 3E
2009/04/17, 00:08:22, , , 25.11, 24.80, 1010.6, 12.8639230, -131.6806320, 299.80, 12.46, 290.20, 1010.22, 306.90, 0.0, 199.22, 79.46, 75.3, 99, 9.1, 55.19940, 34.42940, 27.7954, 34.4294, 55.1994, 79.30, 26.4418, 1537.19, 52.30, 60.8, 13.90, 9.8, 3E
2009/04/17, 00:09:22, , , 25.20, 24.90, 1010.4, 12.8648970, -131.6838400, 289.90, 11.44, 288.60, 1010.40, 303.80, 0.0, 199.22, 79.26, 78.4, 91, 10.0, 55.19480, 34.42940, 27.7909, 34.4294, 55.1948, 79.30, 26.4414, 1537.19, 54.70, 52.5, 10.85, 11.1, 3E
2009/04/17, 00:10:22, , , 25.00, 25.00, 1010.6, 12.8658400, -131.6871070, 283.80, 12.13, 290.30, 1010.37, 304.10, 0.0, 199.22, 78.59, 76.0, 96, 10.1, 55.20020, 34.43020, 27.7950, 34.4302, 55.2002, 79.30, 26.4423, 1537.19, 54.40, 56.5, 10.81, 11.8, 3E
2009/04/17, 00:11:22, , , 25.02, 24.90, 1010.6, 12.8668600, -131.6903600, 292.50, 11.23, 290.20, 1010.48, 288.70, 0.0, 199.22, 78.83, 75.6, 94, 9.9, 55.19750, 34.43010, 27.7925, 34.4301, 55.1975, 79.30, 26.4422, 1537.19, 50.70, 52.9, 12.45, 11.5, 3E
2009/04/17, 00:12:23, , , 25.06, 24.90, 1010.6, 12.8678350, -131.6936620, 293.40, 11.88, 291.90, 1010.53, 275.10, 0.0, 199.22, 79.61, 76.8, 92, 10.4, 55.19720, 34.43130, 27.7906, 34.4313, 55.1972, 79.30, 26.4431, 1537.19, 52.60, 49.2, 12.72, 12.5, 3E
2009/04/17, 00:13:23, , , 25.01, 24.90, 1010.6, 12.8688550, -131.6969120, 285.80, 11.83, 289.50, 1010.22, 294.90, 0.0, 199.22, 78.86, 75.9, 91, 10.2, 55.19230, 34.43040, 27.7871, 34.4304, 55.1923, 79.60, 26.4432, 1537.19, 51.10, 48.6, 10.62, 12.3, 3E
2009/04/17, 00:14:23, , , 24.92, 24.90, 1010.6, 12.8698430, -131.7001670, 291.10, 12.82, 291.00, 1010.44, 315.20, 0.0, 199.22, 77.95, 75.6, 100, 9.5, 55.19280, 34.43050, 27.7875, 34.4305, 55.1928, 79.90, 26.4435, 1537.19, 50.60, 55.8, 12.44, 11.9, 3E
2009/04/17, 00:15:22, , , 25.09, 24.80, 1010.6, 12.8708500, -131.7034130, 286.80, 12.58, 290.10, 1010.40, 355.30, 0.0, 199.22, 78.88, 76.1, 90, 9.5, 55.18790, 34.43060, 27.7826, 34.4306, 55.1879, 79.60, 26.4438, 1537.19, 53.30, 50.8, 12.56, 10.2, 3E
2009/04/17, 00:16:22, , , 25.01, 24.90, 1010.6, 12.8717900, -131.7066820, 288.70, 12.24, 289.80, 1010.43, 412.20, 0.0, 199.22, 78.81, 75.7, 89, 8.9, 55.19050, 34.43030, 27.7855, 34.4303, 55.1905, 79.00, 26.4450, 1537.19, 50.70, 51.4, 11.55, 10.8, 3E
2009/04/17, 00:17:22, , , 25.08, 24.90, 1010.6, 12.8727730, -131.7099680, 282.50, 11.44, 290.10, 1010.16, 443.60, 0.0, 199.22, 78.75, 76.3, 90, 9.0, 55.18650, 34.43070, 27.7811, 34.4307, 55.1865, 79.30, 26.4466, 1537.20, 51.60, 49.5, 11.77, 10.6, 3E
2009/04/17, 00:18:22, , , 25.08, 24.90, 1010.6, 12.8738180, -131.7132970, 288.50, 11.73, 290.20, 1010.40, 500.90, 0.0, 199.22, 78.81, 76.7, 88, 8.9, 55.18650, 34.43030, 27.7816, 34.4303, 55.1865, 78.70, 26.4482, 1537.20, 55.90, 50.2, 11.12, 10.8, 3E
2009/04/17, 00:19:22, , , 25.02, 24.90, 1010.4, 12.8748100, -131.7165400, 280.40, 12.74, 290.30, 1010.31, 437.10, 0.0, 199.22, 78.17, 75.9, 95, 8.8, 55.18040, 34.43050, 27.7757, 34.4305, 55.1804, 79.00, 26.4497, 1537.21, 53.80, 58.5, 11.15, 12.4, 3E
2009/04/17, 00:20:22, , , 25.08, 24.90, 1010.6, 12.8758850, -131.7198570, 289.40, 12.33, 289.70, 1010.25, 372.90, 0.0, 199.22, 78.21, 75.6, 98, 9.7, 55.18700, 34.43040, 27.7820, 34.4304, 55.1870, 78.10, 26.4518, 1537.21, 52.60, 58.0, 13.36, 12.5, 3E
2009/04/17, 00:21:23, , , 25.17, 24.90, 1010.7, 12.8768920, -131.7231730, 284.30, 11.40, 288.40, 1010.42, 337.90, 0.0, 199.22, 79.16, 77.1, 98, 9.0, 55.17930, 34.42980, 27.7755, 34.4298, 55.1793, 78.70, 26.4535, 1537.21, 56.10, 55.8, 12.22, 12.7, 3E
2009/04/17, 00:22:23, , , 25.10, 24.90, 1010.7, 12.8778270, -131.7264750, 280.50, 12.67, 290.30, 1010.41, 311.80, 0.0, 199.22, 79.05, 76.3, 101, 9.0, 55.17570, 34.42990, 27.7718, 34.4299, 55.1757, 79.00, 26.4564, 1537.22, 56.20, 56.9, 11.51, 11.0, 3E
2009/04/17, 00:23:23, , , 25.16, 24.90, 1010.6, 12.8788130, -131.7297700, 285.80, 11.96, 289.90, 1010.54, 330.10, 0.0, 199.22, 79.09, 76.9, 96, 10.3, 55.17230, 34.42990, 27.7686, 34.4299, 55.1723, 78.70, 26.4578, 1537.22, 58.80, 48.8, 11.53, 11.7, 3E
2009/04/17, 00:24:22, , , 25.03, 24.90, 1010.6, 12.8798820, -131.7330600, 287.90, 12.39, 289.80, 1010.19, 347.50, 0.0, 199.22, 79.09, 77.1, 95, 9.4, 55.17130, 34.42920, 27.7686, 34.4292, 55.1713, 79.00, 26.4596, 1537.23, 54.80, 51.3, 11.30, 11.8, 3E
2009/04/17, 00:25:23, , , 25.11, 24.90, 1010.6, 12.8809020, -131.7363220, 285.60, 11.49, 290.30, 1010.45, 352.50, 0.0, 199.22, 79.70, 77.1, 104, 9.6, 55.17320, 34.42880, 27.7710, 34.4288, 55.1732, 80.20, 26.4607, 1537.23, 49.90, 56.7, 11.59, 13.5, 3E
2009/04/17, 00:26:23, , , 25.10, 24.90, 1010.7, 12.8819200, -131.7395920, 285.50, 11.79, 289.40, 1010.39, 366.20, 0.0, 199.22, 79.59, 77.1, 97, 9.9, 55.16410, 34.42840, 27.7628, 34.4284, 55.1641, 79.00, 26.4624, 1537.23, 51.20, 54.3, 12.26, 11.8, 3E
2009/04/17, 00:27:22, , , 25.09, 24.90, 1010.6, 12.8829370, -131.7428820, 292.90, 11.15, 290.30, 1010.55, 375.10, 0.0, 199.22, 80.08, 77.7, 98, 9.4, 55.16490, 34.42870, 27.7631, 34.4287, 55.1649, 79.30, 26.4641, 1537.24, 55.10, 57.6, 12.29, 12.4, 3E
2009/04/17, 00:28:22, , , 25.15, 24.90, 1010.5, 12.8839020, -131.7461820, 294.50, 11.71, 291.00, 1010.35, 370.90, 0.0, 199.22, 80.33, 76.6, 94, 8.8, 55.16120, 34.42800, 27.7605, 34.4280, 55.1612, 79.90, 26.4667, 1537.24, 52.80, 57.2, 12.69, 11.6, 3E
2009/04/17, 00:29:22, , , 25.13, 24.90, 1010.7, 12.8849470, -131.7494150, 289.80, 11.87, 291.20, 1010.38, 350.20, 0.0, 199.22, 80.07, 79.2, 92, 9.2, 55.15450, 34.42780, 27.7545, 34.4278, 55.1545, 79.30, 26.4685, 1537.25, 55.20, 52.9, 11.81, 11.2, 3E
2009/04/17, 00:30:22, , , 25.04, 24.90, 1010.5, 12.8859430, -131.7526570, 279.60, 11.88, 288.90, 1010.49, 341.40, 0.0, 199.22, 79.54, 78.2, 94, 10.3, 55.15290, 34.42760, 27.7532, 34.4276, 55.1529, 79.00, 26.4701, 1537.25, 55.90, 52.3, 11.43, 12.2, 3E
2009/04/17, 00:31:22, , , 25.01, 24.90, 1010.6, 12.8869900, -131.7559030, 294.80, 11.73, 290.10, 1010.25, 360.50, 0.0, 199.22, 79.91, 77.1, 92, 9.8, 55.15320, 34.42780, 27.7532, 34.4278, 55.1532, 79.90, 26.4710, 1537.25, 53.80, 52.2, 12.84, 11.4, 3E
2009/04/17, 00:32:22, , , 25.11, 24.80, 1010.9, 12.8879970, -131.7591450, 299.00, 12.56, 290.20, 1010.53, 389.80, 0.0, 199.22, 80.31, 78.6, 94, 11.2, 55.15350, 34.42700, 27.7546, 34.4270, 55.1535, 79.30, 26.4726, 1537.26, 48.40, 48.3, 13.09, 11.5, 3E
2009/04/17, 00:33:22, , , 24.98, 24.80, 1010.6, 12.8890520, -131.7623720, 293.20, 11.45, 290.20, 1010.24, 406.40, 0.0, 199.22, 79.35, 76.6, 95, 10.2, 55.15090, 34.42760, 27.7513, 34.4276, 55.1509, 79.60, 26.4737, 1537.26, 47.90, 53.7, 12.40, 13.4, 3E
2009/04/17, 00:34:22, , , 25.03, 24.80, 1010.7, 12.8901300, -131.7656300, 295.20, 11.04, 289.90, 1010.31, 369.10, 0.0, 199.22, 79.70, 78.4, 91, 9.5, 55.14690, 34.42780, 27.7472, 34.4278, 55.1469, 79.90, 26.4753, 1537.26, 53.30, 55.5, 13.04, 13.0, 3E
2009/04/17, 00:35:22, , , 25.07, 24.80, 1010.6, 12.8911500, -131.7688900, 287.10, 12.55, 289.40, 1010.53, 331.70, 0.0, 199.22, 80.21, 77.7, 93, 9.6, 55.14960, 34.42950, 27.7473, 34.4295, 55.1496, 78.40, 26.4760, 1537.27, 51.80, 54.2, 12.27, 10.4, 3E
2009/04/17, 00:36:23, , , 25.02, 24.80, 1010.6, 12.8921580, -131.7721650, 282.70, 13.06, 291.00, 1010.42, 324.30, 0.0, 199.22, 79.82, 79.4, 91, 10.0, 55.15090, 34.43050, 27.7473, 34.4305, 55.1509, 79.00, 26.4765, 1537.27, 56.20, 47.6, 11.08, 11.8, 3E
2009/04/17, 00:37:22, , , 24.94, 24.80, 1010.6, 12.8931870, -131.7754000, 288.30, 12.28, 289.10, 1010.65, 305.10, 0.0, 199.22, 79.12, 78.4, 98, 11.2, 55.15300, 34.43180, 27.7476, 34.4318, 55.1530, 78.40, 26.4782, 1537.27, 48.80, 50.6, 12.37, 10.8, 3E
2009/04/17, 00:38:22, , , 24.98, 24.80, 1010.9, 12.8941770, -131.7786800, 291.00, 13.11, 288.60, 1010.40, 276.30, 0.0, 199.22, 79.86, 76.3, 92, 8.5, 55.15460, 34.43310, 27.7473, 34.4331, 55.1546, 79.90, 26.4786, 1537.28, 49.50, 55.7, 13.24, 10.2, 3E
2009/04/17, 00:39:23, , , 25.02, 24.80, 1010.9, 12.8951750, -131.7819520, 280.20, 11.75, 293.40, 1010.37, 206.30, 0.0, 199.22, 79.05, 77.3, 93, 11.8, 55.15670, 34.43370, 27.7485, 34.4337, 55.1567, 79.60, 26.4798, 1537.28, 55.60, 47.6, 10.74, 14.9, 3E
2009/04/17, 00:40:22, , , 25.03, 24.80, 1010.7, 12.8962150, -131.7851580, 286.20, 11.89, 290.30, 1010.61, 158.20, 0.0, 199.22, 79.88, 77.4, 96, 10.3, 55.16280, 34.43580, 27.7515, 34.4358, 55.1628, 79.00, 26.4801, 1537.28, 47.60, 51.3, 12.93, 11.9, 3E
2009/04/17, 00:41:22, , , 24.92, 24.80, 1010.6, 12.8972350, -131.7883850, 293.70, 11.50, 290.00, 1010.46, 135.40, 0.0, 199.22, 79.65, 76.7, 99, 9.8, 55.16040, 34.43620, 27.7486, 34.4362, 55.1604, 79.30, 26.4805, 1537.28, 51.00, 54.5, 13.36, 12.7, 3E
2009/04/17, 00:42:22, , , 24.89, 24.80, 1010.9, 12.8982900, -131.7915970, 285.70, 11.99, 291.00, 1010.62, 129.50, 0.0, 199.22, 80.06, 77.1, 96, 9.8, 55.16330, 34.43690, 27.7505, 34.4369, 55.1633, 78.70, 26.4813, 1537.29, 54.00, 55.9, 12.55, 12.1, 3E
2009/04/17, 00:43:22, , , 24.88, 24.70, 1010.8, 12.8993320, -131.7948250, 287.00, 11.60, 289.70, 1010.49, 134.40, 0.0, 199.22, 80.23, 77.2, 95, 10.5, 55.17300, 34.43940, 27.7565, 34.4394, 55.1730, 77.80, 26.4817, 1537.29, 49.40, 47.0, 12.03, 11.7, 3E
2009/04/17, 00:44:22, , , 24.85, 24.70, 1010.6, 12.9003550, -131.7980700, 288.70, 11.95, 291.00, 1010.42, 139.60, 0.0, 199.22, 81.03, 77.6, 92, 10.6, 55.17620, 34.44000, 27.7586, 34.4400, 55.1762, 78.70, 26.4808, 1537.29, 52.10, 52.8, 12.28, 12.6, 3E
2009/04/17, 00:45:22, , , 24.68, 24.70, 1010.8, 12.9013780, -131.8012980, 293.30, 11.96, 290.50, 1010.86, 140.60, 0.0, 199.22, 79.68, 76.6, 98, 9.7, 55.17450, 34.44110, 27.7555, 34.4411, 55.1745, 78.10, 26.4812, 1537.29, 53.70, 55.1, 12.25, 11.8, 3E
2009/04/17, 00:46:23, , , 24.76, 24.60, 1010.8, 12.9023800, -131.8045030, 290.00, 12.83, 288.80, 1010.55, 140.90, 0.0, 199.22, 80.39, 76.2, 101, 9.7, 55.18100, 34.44290, 27.7593, 34.4429, 55.1810, 78.40, 26.4800, 1537.29, 51.00, 52.4, 13.10, 12.3, 3E
2009/04/17, 00:47:23, , , 24.85, 24.60, 1010.7, 12.9033930, -131.8078130, 292.20, 12.27, 289.30, 1010.53, 143.90, 0.0, 199.22, 79.56, 77.5, 104, 10.9, 55.18280, 34.44320, 27.7605, 34.4432, 55.1828, 78.10, 26.4795, 1537.29, 54.10, 52.4, 12.56, 12.8, 3E
2009/04/17, 00:48:22, , , 24.95, 24.70, 1010.7, 12.9044350, -131.8110300, 289.10, 11.75, 288.90, 1010.62, 148.00, 0.0, 199.22, 79.73, 76.1, 101, 8.2, 55.18550, 34.44350, 27.7628, 34.4435, 55.1855, 79.30, 26.4787, 1537.29, 51.20, 58.8, 12.43, 11.8, 3E
2009/04/17, 00:49:22, , , 24.91, 24.80, 1010.7, 12.9054480, -131.8142930, 283.00, 11.75, 288.30, 1010.44, 154.00, 0.0, 199.22, 79.09, 78.1, 105, 9.1, 55.18520, 34.44410, 27.7616, 34.4441, 55.1852, 77.50, 26.4779, 1537.29, 57.20, 57.5, 12.19, 12.0, 3E
2009/04/17, 00:50:22, , , 24.84, 24.80, 1010.7, 12.9064950, -131.8175280, 288.60, 12.51, 289.20, 1010.65, 158.10, 0.0, 199.22, 79.27, 77.7, 104, 10.5, 55.18630, 34.44360, 27.7633, 34.4436, 55.1863, 78.70, 26.4779, 1537.29, 56.10, 53.2, 13.02, 12.2, 3E
2009/04/17, 00:51:22, , , 24.86, 24.80, 1010.9, 12.9075220, -131.8207920, 287.10, 12.26, 290.20, 1010.38, 159.10, 0.0, 199.22, 79.07, 76.1, 108, 9.5, 55.19320, 34.44450, 27.7687, 34.4445, 55.1932, 77.20, 26.4766, 1537.28, 54.60, 62.2, 13.45, 12.4, 3E
2009/04/17, 00:52:22, , , 24.98, 24.80, 1010.9, 12.9085380, -131.8240670, 295.90, 12.20, 288.70, 1010.66, 148.80, 0.0, 199.22, 80.06, 76.6, 105, 8.9, 55.19360, 34.44460, 27.7691, 34.4446, 55.1936, 78.40, 26.4756, 1537.28, 55.90, 56.7, 13.03, 12.7, 3E
2009/04/17, 00:53:22, , , 24.90, 24.80, 1010.8, 12.9095620, -131.8273220, 294.50, 12.49, 290.00, 1010.62, 142.00, 0.0, 199.22, 79.07, 77.6, 110, 10.0, 55.19770, 34.44500, 27.7724, 34.4450, 55.1977, 78.10, 26.4750, 1537.28, 61.00, 64.5, 12.16, 13.4, 3E
2009/04/17, 00:54:22, , , 24.92, 24.80, 1010.8, 12.9106400, -131.8305630, 295.60, 11.86, 291.00, 1010.45, 143.60, 0.0, 199.22, 79.62, 77.0, 99, 8.9, 55.19670, 34.44470, 27.7719, 34.4447, 55.1967, 78.40, 26.4731, 1537.28, 55.60, 59.5, 13.55, 11.9, 3E
2009/04/17, 00:55:22, , , 25.00, 24.90, 1011.0, 12.9117050, -131.8338800, 288.90, 12.80, 289.50, 1010.52, 148.40, 0.0, 199.22, 80.72, 77.2, 95, 7.9, 55.20180, 34.44480, 27.7765, 34.4448, 55.2018, 78.10, 26.4720, 1537.27, 58.20, 58.5, 11.82, 10.7, 3E
2009/04/17, 00:56:22, , , 24.96, 24.90, 1010.9, 12.9127880, -131.8371670, 287.00, 12.32, 290.70, 1010.52, 156.30, 0.0, 199.22, 80.43, 77.0, 96, 9.3, 55.20890, 34.44550, 27.7824, 34.4455, 55.2089, 78.10, 26.4689, 1537.27, 57.50, 56.1, 11.00, 11.4, 3E
2009/04/17, 00:57:22, , , 24.86, 24.90, 1010.8, 12.9138550, -131.8404650, 283.70, 12.28, 290.30, 1010.62, 160.30, 0.0, 199.22, 79.18, 75.7, 104, 10.2, 55.20390, 34.44490, 27.7785, 34.4449, 55.2039, 78.40, 26.4659, 1537.26, 52.50, 59.6, 12.08, 12.4, 3E
2009/04/17, 00:58:22, , , 24.96, 24.80, 1010.8, 12.9149550, -131.8437370, 290.80, 11.86, 290.90, 1010.64, 161.50, 0.0, 199.22, 79.66, 75.9, 98, 8.9, 55.20550, 34.44540, 27.7794, 34.4454, 55.2055, 77.80, 26.4616, 1537.25, 54.70, 60.1, 13.39, 11.2, 3E
2009/04/17, 00:59:22, , , 24.91, 24.90, 1010.6, 12.9160850, -131.8470320, 283.50, 12.98, 290.50, 1010.69, 158.40, 0.0, 199.22, 79.10, 76.8, 106, 8.9, 55.20820, 34.44540, 27.7818, 34.4454, 55.2082, 77.80, 26.4590, 1537.24, 57.10, 63.2, 11.42, 14.3, 3E
2009/04/17, 01:00:23, , , 24.90, 24.80, 1010.7, 12.9171080, -131.8503430, 283.80, 12.03, 290.30, 1010.60, 154.00, 0.0, 199.22, 78.56, 76.9, 103, 9.3, 55.21080, 34.44520, 27.7846, 34.4452, 55.2108, 77.80, 26.4552, 1537.23, 58.20, 58.7, 11.57, 14.3, 3E
2009/04/17, 01:01:22, , , 24.87, 24.80, 1011.1, 12.9181830, -131.8536320, 282.40, 11.96, 288.00, 1010.75, 154.50, 0.0, 199.22, 78.91, 75.2, 109, 8.1, 55.21190, 34.44540, 27.7854, 34.4454, 55.2119, 78.10, 26.4528, 1537.23, 59.50, 64.7, 12.03, 12.4, 3E
2009/04/17, 01:02:22, , , 25.05, 24.80, 1010.8, 12.9191780, -131.8569170, 282.40, 11.94, 290.90, 1010.75, 159.70, 0.0, 199.22, 79.77, 76.6, 106, 9.7, 55.20870, 34.44460, 27.7834, 34.4446, 55.2087, 78.70, 26.4505, 1537.22, 65.20, 56.7, 11.35, 13.1, 3E
2009/04/17, 01:03:22, , , 24.95, 24.90, 1010.7, 12.9202320, -131.8601730, 292.20, 12.79, 291.10, 1010.43, 172.20, 0.0, 199.22, 79.84, 75.8, 114, 9.6, 55.20920, 34.44510, 27.7833, 34.4451, 55.2092, 79.00, 26.4469, 1537.21, 59.60, 64.9, 12.14, 12.7, 3E
2009/04/17, 01:04:22, , , 25.06, 24.90, 1011.0, 12.9213400, -131.8634450, 290.60, 12.14, 290.10, 1010.64, 181.60, 0.0, 199.22, 80.18, 76.9, 101, 9.5, 55.21000, 34.44460, 27.7847, 34.4446, 55.2100, 78.40, 26.4447, 1537.21, 60.60, 55.7, 11.87, 12.8, 3E
2009/04/17, 01:05:22, , , 24.98, 24.90, 1010.7, 12.9224000, -131.8667180, 283.90, 12.77, 289.80, 1010.64, 175.30, 0.0, 199.22, 80.02, 76.9, 104, 9.8, 55.20680, 34.44440, 27.7819, 34.4444, 55.2068, 78.40, 26.4424, 1537.20, 57.40, 57.9, 12.01, 13.2, 3E
2009/04/17, 01:06:22, , , 24.95, 24.90, 1010.8, 12.9234670, -131.8699500, 292.30, 11.93, 289.20, 1010.72, 171.70, 0.0, 199.22, 79.62, 75.6, 114, 9.3, 55.20550, 34.44390, 27.7813, 34.4439, 55.2055, 79.00, 26.4398, 1537.20, 56.80, 65.9, 13.02, 13.1, 3E
2009/04/17, 01:07:22, , , 25.02, 24.90, 1010.8, 12.9245280, -131.8731720, 290.90, 12.59, 290.60, 1010.64, 178.40, 0.0, 199.22, 80.38, 78.6, 95, 10.6, 55.19860, 34.44420, 27.7744, 34.4442, 55.1986, 79.00, 26.4384, 1537.19, 59.90, 51.9, 12.67, 12.1, 3E
2009/04/17, 01:08:23, , , 24.88, 24.90, 1010.8, 12.9256050, -131.8764350, 294.00, 11.91, 288.90, 1010.63, 183.20, 0.0, 199.22, 79.50, 75.7, 98, 10.6, 55.20150, 34.44380, 27.7776, 34.4438, 55.2015, 78.70, 26.4362, 1537.19, 52.50, 54.9, 13.33, 12.0, 3E
2009/04/17, 01:09:22, , , 24.91, 24.80, 1010.9, 12.9266200, -131.8797080, 285.00, 11.54, 289.20, 1010.66, 189.10, 0.0, 199.22, 79.69, 76.5, 96, 10.0, 55.20210, 34.44310, 27.7792, 34.4431, 55.2021, 79.30, 26.4348, 1537.18, 56.00, 54.7, 12.12, 11.5, 3E
2009/04/17, 01:10:22, , , 24.97, 24.80, 1010.7, 12.9276670, -131.8829850, 297.30, 11.15, 288.60, 1010.80, 258.70, 0.0, 199.22, 79.61, 76.6, 102, 9.3, 55.20310, 34.44270, 27.7808, 34.4427, 55.2031, 79.60, 26.4341, 1537.18, 53.70, 60.6, 12.33, 10.9, 3E
2009/04/17, 01:11:22, , , 24.95, 24.80, 1010.9, 12.9286920, -131.8862950, 296.30, 11.53, 288.90, 1010.41, 302.10, 0.0, 199.22, 78.91, 76.1, 105, 9.5, 55.20360, 34.44140, 27.7830, 34.4414, 55.2036, 79.00, 26.4330, 1537.18, 54.30, 62.0, 13.59, 12.2, 3E
2009/04/17, 01:12:23, , , 25.00, 24.80, 1010.9, 12.9297130, -131.8895970, 288.20, 11.73, 290.90, 1010.62, 395.70, 0.0, 199.22, 79.00, 76.9, 109, 9.6, 55.19850, 34.44060, 27.7792, 34.4406, 55.1985, 78.70, 26.4328, 1537.18, 57.70, 61.9, 12.48, 13.3, 3E
2009/04/17, 01:13:22, , , 25.14, 24.90, 1010.8, 12.9307430, -131.8928370, 289.10, 12.38, 288.90, 1010.72, 425.50, 0.0, 199.22, 79.35, 75.9, 107, 10.2, 55.19490, 34.44030, 27.7761, 34.4403, 55.1949, 79.00, 26.4320, 1537.18, 57.60, 54.3, 13.35, 11.5, 3E
2009/04/17, 01:14:22, , , 25.15, 24.90, 1010.9, 12.9317550, -131.8960520, 282.30, 11.88, 288.00, 1010.59, 473.90, 0.0, 199.22, 79.45, 77.1, 100, 9.1, 55.19390, 34.44040, 27.7750, 34.4404, 55.1939, 79.30, 26.4301, 1537.17, 54.80, 55.1, 12.09, 11.6, 3E
2009/04/17, 01:15:22, , , 25.19, 25.00, 1010.8, 12.9327700, -131.8992900, 290.00, 12.30, 289.00, 1010.78, 520.80, 0.0, 199.22, 79.74, 77.2, 98, 9.1, 55.19190, 34.43980, 27.7738, 34.4398, 55.1919, 79.60, 26.4287, 1537.17, 52.60, 53.0, 12.73, 11.0, 3E
2009/04/17, 01:16:22, , , 25.16, 25.00, 1010.8, 12.9337520, -131.9025750, 279.80, 12.08, 289.60, 1010.34, 518.20, 0.0, 199.22, 79.28, 76.4, 96, 10.4, 55.19350, 34.43880, 27.7767, 34.4388, 55.1935, 79.00, 26.4277, 1537.16, 53.10, 50.8, 11.99, 12.1, 3E
2009/04/17, 01:17:22, , , 25.10, 24.90, 1011.0, 12.9347420, -131.9058430, 285.10, 11.59, 288.90, 1010.65, 474.40, 0.0, 199.22, 78.43, 76.1, 105, 10.7, 55.18390, 34.43770, 27.7691, 34.4377, 55.1839, 77.50, 26.4272, 1537.16, 53.40, 56.0, 12.50, 14.0, 3E
2009/04/17, 01:18:23, , , 25.11, 24.90, 1010.8, 12.9357100, -131.9091170, 286.20, 12.07, 289.70, 1010.39, 409.80, 0.0, 199.22, 78.25, 75.2, 105, 10.8, 55.18170, 34.43640, 27.7689, 34.4364, 55.1817, 78.10, 26.4260, 1537.16, 53.00, 55.8, 12.72, 14.4, 3E
2009/04/17, 01:19:22, , , 25.08, 24.90, 1010.7, 12.9367600, -131.9123900, 293.40, 12.02, 288.90, 1010.67, 250.20, 0.0, 199.22, 78.31, 75.6, 101, 10.7, 55.17380, 34.43480, 27.7634, 34.4348, 55.1738, 79.30, 26.4259, 1537.16, 52.10, 55.1, 13.66, 13.2, 3E
2009/04/17, 01:20:22, , , 25.07, 24.90, 1010.9, 12.9377470, -131.9156670, 293.00, 11.68, 290.80, 1010.70, 292.00, 0.0, 199.22, 77.77, 76.8, 103, 10.1, 55.17570, 34.43280, 27.7679, 34.4328, 55.1757, 79.00, 26.4255, 1537.15, 53.80, 56.3, 13.28, 12.0, 3E
2009/04/17, 01:21:22, , , 25.08, 24.90, 1010.8, 12.9387770, -131.9188680, 290.50, 12.09, 289.50, 1010.62, 271.40, 0.0, 199.22, 78.20, 75.4, 103, 10.8, 55.16760, 34.43030, 27.7636, 34.4303, 55.1676, 79.30, 26.4242, 1537.15, 51.80, 58.4, 12.85, 13.7, 3E
2009/04/17, 01:22:22, , , 25.04, 24.90, 1010.8, 12.9397570, -131.9221220, 290.10, 12.07, 288.90, 1010.46, 256.30, 0.0, 199.22, 77.97, 74.3, 112, 10.0, 55.15590, 34.42770, 27.7559, 34.4277, 55.1559, 79.30, 26.4235, 1537.14, 54.20, 63.6, 14.42, 12.2, 3E
2009/04/17, 01:23:23, , , 25.18, 24.90, 1010.9, 12.9408250, -131.9254100, 293.30, 11.63, 289.20, 1010.69, 253.20, 0.0, 199.22, 78.65, 77.4, 109, 9.2, 55.15450, 34.42520, 27.7580, 34.4252, 55.1545, 79.90, 26.4232, 1537.14, 56.70, 56.8, 13.34, 11.8, 3E
2009/04/17, 01:24:22, , , 25.06, 25.00, 1010.9, 12.9417930, -131.9285520, 286.70, 10.95, 288.20, 1010.61, 258.70, 0.0, 199.22, 78.89, 77.4, 105, 8.0, 55.15030, 34.42330, 27.7565, 34.4233, 55.1503, 80.50, 26.4217, 1537.13, 57.30, 60.7, 11.59, 11.2, 3E
2009/04/17, 01:25:22, , , 25.17, 25.00, 1010.9, 12.9428320, -131.9317330, 282.60, 12.38, 288.70, 1010.95, 247.00, 0.0, 199.22, 80.00, 76.6, 110, 10.7, 55.14040, 34.42040, 27.7511, 34.4204, 55.1404, 80.50, 26.4199, 1537.13, 59.00, 57.5, 12.04, 13.1, 3E
2009/04/17, 01:26:22, , , 25.16, 25.00, 1010.9, 12.9438400, -131.9349720, 282.00, 11.83, 289.40, 1010.75, 292.40, 0.0, 199.22, 79.75, 75.6, 103, 9.0, 55.13270, 34.41830, 27.7466, 34.4183, 55.1327, 81.50, 26.4192, 1537.12, 58.10, 59.9, 12.49, 10.7, 3E
2009/04/17, 01:27:22, , , 25.10, 25.00, 1010.9, 12.9448150, -131.9382450, 290.00, 12.69, 289.30, 1010.66, 317.60, 0.0, 199.22, 78.73, 76.5, 104, 10.6, 55.12730, 34.41640, 27.7440, 34.4164, 55.1273, 81.20, 26.4181, 1537.12, 56.00, 56.4, 12.28, 13.2, 3E
2009/04/17, 01:28:22, , , 25.08, 25.00, 1010.9, 12.9459220, -131.9414680, 290.10, 11.76, 290.30, 1010.61, 233.60, 0.0, 199.22, 78.96, 75.4, 103, 9.7, 55.12740, 34.41550, 27.7453, 34.4155, 55.1274, 81.20, 26.4169, 1537.11, 57.80, 59.0, 12.32, 12.8, 3E
2009/04/17, 01:29:22, , , 25.01, 24.90, 1010.9, 12.9469520, -131.9447400, 276.80, 12.47, 290.20, 1010.77, 222.50, 0.0, 199.22, 78.40, 75.9, 112, 9.0, 55.12280, 34.41480, 27.7419, 34.4148, 55.1228, 81.20, 26.4168, 1537.11, 55.70, 64.6, 12.63, 12.6, 3E
2009/04/17, 01:30:22, , , 25.05, 24.90, 1010.9, 12.9480070, -131.9480200, 296.90, 11.42, 289.10, 1010.68, 221.50, 0.0, 199.22, 78.19, 76.0, 111, 11.1, 55.11770, 34.41310, 27.7392, 34.4131, 55.1177, 81.20, 26.4163, 1537.11, 58.90, 62.4, 12.88, 13.9, 3E
2009/04/17, 01:31:22, , , 25.05, 24.90, 1010.9, 12.9490450, -131.9512670, 293.10, 12.00, 289.50, 1010.59, 165.60, 0.0, 199.22, 78.39, 75.8, 107, 10.1, 55.11000, 34.41310, 27.7319, 34.4131, 55.1100, 81.50, 26.4150, 1537.11, 58.00, 56.7, 11.88, 13.1, 3E
2009/04/17, 01:32:22, , , 25.06, 24.90, 1011.0, 12.9500820, -131.9544970, 299.50, 12.48, 290.20, 1010.50, 143.60, 0.0, 199.22, 78.75, 75.8, 110, 9.5, 55.10500, 34.41250, 27.7279, 34.4125, 55.1050, 81.50, 26.4148, 1537.11, 55.80, 64.2, 13.91, 10.4, 3E